Time,TemperatureF,DewpointF,PressureIn,WindDirection,WindDirectionDegrees,WindSpeedMPH,WindSpeedGustMPH,Humidity,HourlyPrecipIn,Conditions,Clouds,dailyrainin,SoftwareType,DateUTC
2013-12-01 00:00:00,32.6,25.8,30.36,NNW,338,0.4,0.4,76,0.00,,,0.00,WUHU216HW,2013-12-01 05:00:00,
2013-12-01 00:01:00,32.6,25.8,30.36,NNW,338,0.4,0.4,76,0.00,,,0.00,WUHU216HW,2013-12-01 05:01:00,
2013-12-01 00:02:00,32.6,25.8,30.36,NNW,338,0.4,0.4,76,0.00,,,0.00,WUHU216HW,2013-12-01 05:02:00,
2013-12-01 00:06:00,32.6,25.8,30.36,NNW,338,0.4,0.4,76,0.00,,,0.00,WUHU216HW,2013-12-01 05:06:00,
2013-12-01 00:30:00,32.6,25.8,30.35,NNW,338,0.0,0.0,76,0.00,,,0.00,WUHU216HW,2013-12-01 05:30:00,
2013-12-01 00:35:00,32.6,25.8,30.35,NNW,338,0.0,0.0,76,0.00,,,0.00,WUHU216HW,2013-12-01 05:35:00,
2013-12-01 01:00:00,32.0,25.4,30.34,NNW,338,0.2,0.2,76,0.00,,,0.00,WUHU216HW,2013-12-01 06:00:00,
2013-12-01 01:05:00,32.0,25.4,30.34,NNW,338,0.2,0.2,76,0.00,,,0.00,WUHU216HW,2013-12-01 06:05:00,
2013-12-01 01:30:00,31.7,25.3,30.33,NNW,338,0.7,0.7,77,0.00,,,0.00,WUHU216HW,2013-12-01 06:30:00,
2013-12-01 01:35:00,31.7,25.3,30.33,NNW,338,0.7,0.7,77,0.00,,,0.00,WUHU216HW,2013-12-01 06:35:00,
2013-12-01 02:00:00,31.9,25.8,30.32,NW,315,0.0,0.0,78,0.00,,,0.00,WUHU216HW,2013-12-01 07:00:00,
2013-12-01 02:05:00,31.9,25.8,30.32,NW,315,0.0,0.0,78,0.00,,,0.00,WUHU216HW,2013-12-01 07:05:00,
2013-12-01 02:30:00,31.7,25.7,30.33,NW,315,0.0,0.0,78,0.00,,,0.00,WUHU216HW,2013-12-01 07:30:00,
2013-12-01 02:35:00,31.7,25.7,30.33,NW,315,0.0,0.0,78,0.00,,,0.00,WUHU216HW,2013-12-01 07:35:00,
2013-12-01 03:00:00,31.3,25.3,30.31,NNW,338,0.0,0.0,78,0.00,,,0.00,WUHU216HW,2013-12-01 08:00:00,
2013-12-01 03:05:00,31.3,25.3,30.31,NNW,338,0.0,0.0,78,0.00,,,0.00,WUHU216HW,2013-12-01 08:05:00,
2013-12-01 03:30:00,29.9,23.9,30.29,NNW,338,0.0,0.0,78,0.00,,,0.00,WUHU216HW,2013-12-01 08:30:00,
2013-12-01 03:35:00,29.9,23.9,30.29,NNW,338,0.0,0.0,78,0.00,,,0.00,WUHU216HW,2013-12-01 08:35:00,
2013-12-01 04:00:00,30.1,24.3,30.28,NNW,338,0.0,0.0,79,0.00,,,0.00,WUHU216HW,2013-12-01 09:00:00,
2013-12-01 04:01:00,30.1,24.3,30.28,NNW,338,0.0,0.0,79,0.00,,,0.00,WUHU216HW,2013-12-01 09:01:00,
2013-12-01 04:06:00,30.1,24.3,30.28,NNW,338,0.0,0.0,79,0.00,,,0.00,WUHU216HW,2013-12-01 09:06:00,
2013-12-01 04:30:00,30.2,24.5,30.28,WNW,293,0.7,0.7,79,0.00,,,0.00,WUHU216HW,2013-12-01 09:30:00,
2013-12-01 04:35:00,30.2,24.5,30.28,WNW,293,0.7,0.7,79,0.00,,,0.00,WUHU216HW,2013-12-01 09:35:00,
2013-12-01 05:00:00,30.2,24.8,30.26,North,0,0.0,0.0,80,0.00,,,0.00,WUHU216HW,2013-12-01 10:00:00,
2013-12-01 05:05:00,30.2,24.8,30.26,North,0,0.0,0.0,80,0.00,,,0.00,WUHU216HW,2013-12-01 10:05:00,
2013-12-01 05:30:00,30.1,24.7,30.27,WNW,293,0.0,0.0,80,0.00,,,0.00,WUHU216HW,2013-12-01 10:30:00,
2013-12-01 05:35:00,30.1,24.7,30.27,WNW,293,0.0,0.0,80,0.00,,,0.00,WUHU216HW,2013-12-01 10:35:00,
2013-12-01 06:00:00,29.9,24.5,30.27,NNW,338,0.0,0.0,80,0.00,,,0.00,WUHU216HW,2013-12-01 11:00:00,
2013-12-01 06:05:00,29.9,24.5,30.27,NNW,338,0.0,0.0,80,0.00,,,0.00,WUHU216HW,2013-12-01 11:05:00,
2013-12-01 06:30:00,29.7,24.6,30.27,WSW,248,0.0,0.0,81,0.00,,,0.00,WUHU216HW,2013-12-01 11:30:00,
2013-12-01 06:35:00,29.7,24.6,30.27,WSW,248,0.0,0.0,81,0.00,,,0.00,WUHU216HW,2013-12-01 11:35:00,
2013-12-01 07:00:00,29.3,24.2,30.28,WNW,293,0.0,0.0,81,0.00,,,0.00,WUHU216HW,2013-12-01 12:00:00,
2013-12-01 07:05:00,29.3,24.2,30.28,WNW,293,0.0,0.0,81,0.00,,,0.00,WUHU216HW,2013-12-01 12:05:00,
2013-12-01 07:30:00,29.3,24.5,30.26,NNW,338,0.0,0.0,82,0.00,,,0.00,WUHU216HW,2013-12-01 12:30:00,
2013-12-01 07:35:00,29.3,24.5,30.26,NNW,338,0.0,0.0,82,0.00,,,0.00,WUHU216HW,2013-12-01 12:35:00,
2013-12-01 08:00:00,29.0,24.5,30.26,North,0,0.2,0.2,83,0.00,,,0.00,WUHU216HW,2013-12-01 13:00:00,
2013-12-01 08:05:00,29.0,24.5,30.26,North,0,0.2,0.2,83,0.00,,,0.00,WUHU216HW,2013-12-01 13:05:00,
2013-12-01 08:30:00,30.1,25.6,30.26,North,0,0.0,0.0,83,0.00,,,0.00,WUHU216HW,2013-12-01 13:30:00,
2013-12-01 08:35:00,30.1,25.6,30.26,North,0,0.0,0.0,83,0.00,,,0.00,WUHU216HW,2013-12-01 13:35:00,
2013-12-01 09:00:00,32.8,28.2,30.26,North,0,0.0,0.0,83,0.00,,,0.00,WUHU216HW,2013-12-01 14:00:00,
2013-12-01 09:05:00,32.8,28.2,30.26,North,0,0.0,0.0,83,0.00,,,0.00,WUHU216HW,2013-12-01 14:05:00,
2013-12-01 09:30:00,37.1,32.0,30.26,SSW,203,1.6,1.6,82,0.00,,,0.00,WUHU216HW,2013-12-01 14:30:00,
2013-12-01 09:35:00,37.1,32.0,30.26,SSW,203,1.6,1.6,82,0.00,,,0.00,WUHU216HW,2013-12-01 14:35:00,
2013-12-01 10:00:00,40.3,34.3,30.26,South,180,0.7,0.7,79,0.00,,,0.00,WUHU216HW,2013-12-01 15:00:00,
2013-12-01 10:05:00,40.3,34.3,30.26,South,180,0.7,0.7,79,0.00,,,0.00,WUHU216HW,2013-12-01 15:05:00,
2013-12-01 10:30:00,43.9,36.2,30.25,NE,45,0.0,0.0,74,0.00,,,0.00,WUHU216HW,2013-12-01 15:30:00,
2013-12-01 10:35:00,43.9,36.2,30.25,NE,45,0.0,0.0,74,0.00,,,0.00,WUHU216HW,2013-12-01 15:35:00,
2013-12-01 11:00:00,46.8,36.5,30.24,WNW,293,1.1,1.1,67,0.00,,,0.00,WUHU216HW,2013-12-01 16:00:00,
2013-12-01 11:05:00,46.8,36.5,30.24,WNW,293,1.1,1.1,67,0.00,,,0.00,WUHU216HW,2013-12-01 16:05:00,
2013-12-01 11:30:00,49.1,37.1,30.22,WNW,293,1.8,1.8,63,0.00,,,0.00,WUHU216HW,2013-12-01 16:30:00,
2013-12-01 11:35:00,49.1,37.1,30.22,WNW,293,1.8,1.8,63,0.00,,,0.00,WUHU216HW,2013-12-01 16:35:00,
2013-12-01 12:00:00,51.5,36.6,30.20,West,270,1.1,1.1,57,0.00,,,0.00,WUHU216HW,2013-12-01 17:00:00,
2013-12-01 12:05:00,51.5,36.6,30.20,West,270,1.1,1.1,57,0.00,,,0.00,WUHU216HW,2013-12-01 17:05:00,
2013-12-01 12:30:00,53.3,36.6,30.18,NW,315,0.0,0.0,53,0.00,,,0.00,WUHU216HW,2013-12-01 17:30:00,
2013-12-01 12:35:00,53.3,36.6,30.18,NW,315,0.0,0.0,53,0.00,,,0.00,WUHU216HW,2013-12-01 17:35:00,
2013-12-01 13:00:00,54.4,36.5,30.16,SW,225,0.2,0.2,51,0.00,,,0.00,WUHU216HW,2013-12-01 18:00:00,
2013-12-01 13:05:00,54.4,36.5,30.16,SW,225,0.2,0.2,51,0.00,,,0.00,WUHU216HW,2013-12-01 18:05:00,
2013-12-01 13:30:00,55.4,37.1,30.14,NW,315,0.7,0.7,50,0.00,,,0.00,WUHU216HW,2013-12-01 18:30:00,
2013-12-01 13:35:00,55.4,37.1,30.14,NW,315,0.7,0.7,50,0.00,,,0.00,WUHU216HW,2013-12-01 18:35:00,
2013-12-01 14:00:00,56.5,37.0,30.13,SW,225,1.6,1.6,48,0.00,,,0.00,WUHU216HW,2013-12-01 19:00:00,
2013-12-01 14:05:00,56.5,37.0,30.13,SW,225,1.6,1.6,48,0.00,,,0.00,WUHU216HW,2013-12-01 19:05:00,
2013-12-01 14:30:00,56.9,36.3,30.11,NE,45,0.7,0.7,46,0.00,,,0.00,WUHU216HW,2013-12-01 19:30:00,
2013-12-01 14:35:00,56.9,36.3,30.11,NE,45,0.7,0.7,46,0.00,,,0.00,WUHU216HW,2013-12-01 19:35:00,
2013-12-01 14:38:00,56.9,36.3,30.11,NE,45,0.7,0.7,46,0.00,,,0.00,WUHU216HW,2013-12-01 19:38:00,
2013-12-01 15:00:00,57.4,36.7,30.10,SE,135,1.8,1.8,46,0.00,,,0.00,WUHU216HW,2013-12-01 20:00:00,
2013-12-01 15:05:00,57.4,36.7,30.10,SE,135,1.8,1.8,46,0.00,,,0.00,WUHU216HW,2013-12-01 20:05:00,
2013-12-01 15:30:00,56.9,36.3,30.10,SSW,203,0.4,0.4,46,0.00,,,0.00,WUHU216HW,2013-12-01 20:30:00,
2013-12-01 15:35:00,56.9,36.3,30.10,SSW,203,0.4,0.4,46,0.00,,,0.00,WUHU216HW,2013-12-01 20:35:00,
2013-12-01 16:00:00,56.2,35.6,30.09,SSE,158,0.0,0.0,46,0.00,,,0.00,WUHU216HW,2013-12-01 21:00:00,
2013-12-01 16:05:00,56.2,35.6,30.09,SSE,158,0.0,0.0,46,0.00,,,0.00,WUHU216HW,2013-12-01 21:05:00,
2013-12-01 16:30:00,55.1,35.1,30.08,SSE,158,0.2,0.2,47,0.00,,,0.00,WUHU216HW,2013-12-01 21:30:00,
2013-12-01 16:35:00,55.1,35.1,30.08,SSE,158,0.2,0.2,47,0.00,,,0.00,WUHU216HW,2013-12-01 21:35:00,
2013-12-01 17:00:00,53.8,33.9,30.08,SE,135,0.0,0.0,47,0.00,,,0.00,WUHU216HW,2013-12-01 22:00:00,
2013-12-01 17:05:00,53.8,33.9,30.08,SE,135,0.0,0.0,47,0.00,,,0.00,WUHU216HW,2013-12-01 22:05:00,
2013-12-01 17:30:00,52.0,32.9,30.08,East,90,0.0,0.0,48,0.00,,,0.00,WUHU216HW,2013-12-01 22:30:00,
2013-12-01 17:35:00,52.0,32.9,30.08,East,90,0.0,0.0,48,0.00,,,0.00,WUHU216HW,2013-12-01 22:35:00,
2013-12-01 18:00:00,50.6,33.1,30.08,East,90,0.0,0.0,51,0.00,,,0.00,WUHU216HW,2013-12-01 23:00:00,
2013-12-01 18:05:00,50.6,33.1,30.08,East,90,0.0,0.0,51,0.00,,,0.00,WUHU216HW,2013-12-01 23:05:00,
2013-12-01 18:30:00,49.0,32.5,30.07,East,90,0.0,0.0,53,0.00,,,0.00,WUHU216HW,2013-12-01 23:30:00,
2013-12-01 18:35:00,49.0,32.5,30.07,East,90,0.0,0.0,53,0.00,,,0.00,WUHU216HW,2013-12-01 23:35:00,
2013-12-01 19:00:00,47.2,31.8,30.07,North,0,0.0,0.0,55,0.00,,,0.00,WUHU216HW,2013-12-02 00:00:00,
2013-12-01 19:05:00,47.2,31.8,30.07,North,0,0.0,0.0,55,0.00,,,0.00,WUHU216HW,2013-12-02 00:05:00,
2013-12-01 19:30:00,45.7,31.3,30.06,North,0,0.0,0.0,57,0.00,,,0.00,WUHU216HW,2013-12-02 00:30:00,
2013-12-01 19:35:00,45.7,31.3,30.06,North,0,0.0,0.0,57,0.00,,,0.00,WUHU216HW,2013-12-02 00:35:00,
2013-12-01 20:00:00,44.6,30.8,30.06,North,0,0.0,0.0,58,0.00,,,0.00,WUHU216HW,2013-12-02 01:00:00,
2013-12-01 20:05:00,44.6,30.8,30.06,North,0,0.0,0.0,58,0.00,,,0.00,WUHU216HW,2013-12-02 01:05:00,
2013-12-01 20:30:00,44.3,30.9,30.06,North,0,0.0,0.0,59,0.00,,,0.00,WUHU216HW,2013-12-02 01:30:00,
2013-12-01 20:35:00,44.3,30.9,30.06,North,0,0.0,0.0,59,0.00,,,0.00,WUHU216HW,2013-12-02 01:35:00,
2013-12-01 21:00:00,43.7,30.8,30.06,WSW,248,0.7,0.7,60,0.00,,,0.00,WUHU216HW,2013-12-02 02:00:00,
2013-12-01 21:05:00,43.7,30.8,30.06,WSW,248,0.7,0.7,60,0.00,,,0.00,WUHU216HW,2013-12-02 02:05:00,
2013-12-01 21:30:00,42.7,30.5,30.06,North,0,0.0,0.0,62,0.00,,,0.00,WUHU216HW,2013-12-02 02:30:00,
2013-12-01 21:35:00,42.7,30.5,30.06,North,0,0.0,0.0,62,0.00,,,0.00,WUHU216HW,2013-12-02 02:35:00,
2013-12-01 22:00:00,41.2,30.0,30.05,North,0,0.4,0.4,64,0.00,,,0.00,WUHU216HW,2013-12-02 03:00:00,
2013-12-01 22:05:00,41.2,30.0,30.05,North,0,0.4,0.4,64,0.00,,,0.00,WUHU216HW,2013-12-02 03:05:00,
2013-12-01 22:30:00,39.8,29.3,30.05,North,0,0.0,0.0,66,0.00,,,0.00,WUHU216HW,2013-12-02 03:30:00,
2013-12-01 22:35:00,39.8,29.3,30.05,North,0,0.0,0.0,66,0.00,,,0.00,WUHU216HW,2013-12-02 03:35:00,
2013-12-01 23:00:00,40.0,29.4,30.04,North,0,0.4,0.4,66,0.00,,,0.00,WUHU216HW,2013-12-02 04:00:00,
2013-12-01 23:05:00,40.0,29.4,30.04,North,0,0.4,0.4,66,0.00,,,0.00,WUHU216HW,2013-12-02 04:05:00,
2013-12-01 23:30:00,37.8,28.5,30.04,North,0,0.0,0.0,69,0.00,,,0.00,WUHU216HW,2013-12-02 04:30:00,
2013-12-01 23:35:00,37.8,28.5,30.04,North,0,0.0,0.0,69,0.00,,,0.00,WUHU216HW,2013-12-02 04:35:00,